Theta_e
323 318 313 315 305 299 294 299 302 294 292 293 294 295 294 290 292 293 298 295 295 295 296 301 317 322 326 328 331 333 337 341 342 346 347 346 347 345 345 347 347 347 347 348 348 345 346 344 343
318 312 317 309 299 293 297 302 298 294 293 293 291 291 290 287 292 293 294 294 295 295 295 300 313 318 321 324 326 329 332 335 336 339 341 346 347 346 346 345 346 346 346 346 347 347 346 346 344
309 312 311 304 296 294 297 299 292 292 293 293 289 290 289 286 291 291 292 293 293 293 294 299 310 314 317 319 322 324 327 329 331 333 336 339 342 345 344 345 345 345 345 346 346 346 346 346 345
306 314 310 300 299 301 300 296 293 291 292 292 290 286 289 291 290 290 292 292 292 292 293 296 307 310 313 315 317 320 321 323 325 327 329 333 336 337 341 343 343 343 344 346 345 345 345 346 345
312 310 301 300 298 293 292 293 295 292 290 289 290 285 286 289 291 291 290 291 290 291 292 293 302 305 308 311 313 315 316 318 319 321 323 326 329 330 332 334 337 341 342 341 343 345 345 345 344
307 306 296 295 299 292 292 292 292 290 290 289 288 286 286 290 289 290 290 290 291 291 291 292 295 300 303 306 308 310 312 313 314 315 317 319 321 322 325 328 331 333 335 339 342 342 343 344 343
305 302 297 297 300 294 291 292 289 288 289 287 290 286 287 288 290 290 290 291 291 291 290 291 291 293 296 300 303 306 307 308 309 309 309 310 311 313 316 317 323 327 328 332 336 338 340 342 342
303 304 299 299 299 296 291 289 289 289 286 291 289 286 285 287 290 290 290 290 290 290 290 289 290 291 292 293 298 300 302 303 303 303 304 304 304 306 308 310 315 319 320 324 326 329 333 337 339
303 297 296 297 298 292 289 287 288 289 286 286 286 286 287 288 289 289 289 289 289 289 289 289 289 290 291 293 293 295 297 298 298 297 299 298 298 299 300 305 309 312 312 316 319 322 322 323 332
300 299 297 289 288 287 286 287 287 287 285 284 284 286 288 288 287 286 285 285 286 287 288 288 288 288 289 292 291 292 292 293 293 293 294 294 295 296 298 300 302 304 306 309 313 315 316 316 320
289 290 288 288 292 290 287 286 288 286 284 285 284 284 285 285 285 285 285 285 285 286 287 288 288 288 288 289 290 290 292 292 292 291 292 293 293 294 295 296 297 298 300 301 305 308 309 310 313
286 285 286 286 288 293 292 289 285 285 285 287 286 286 285 284 283 284 284 284 285 285 286 287 288 288 288 289 289 289 290 290 290 291 291 291 291 292 293 293 294 294 296 297 299 302 304 306 309
285 284 285 286 286 285 286 284 285 283 284 286 285 285 284 283 283 284 284 284 285 284 285 286 287 287 287 288 288 288 288 289 289 289 290 290 290 290 291 292 292 293 294 295 296 297 299 301 303
284 283 282 284 285 285 283 283 285 283 284 283 283 282 282 283 283 283 283 283 283 284 284 286 286 286 287 287 287 287 288 288 288 289 289 290 290 289 290 290 291 292 294 294 294 295 296 297 299
283 281 282 280 281 283 284 281 281 283 284 282 281 282 282 282 283 282 282 282 283 283 284 285 286 286 286 286 286 287 287 287 287 287 288 288 289 289 289 290 291 292 293 292 293 294 295 296 297
281 281 279 279 280 281 282 280 281 282 282 280 280 280 281 281 282 282 283 283 283 283 283 284 284 284 285 285 285 285 286 286 286 286 287 287 287 288 288 288 289 291 291 290 291 291 292 294 294
277 276 277 279 278 278 279 278 280 281 281 279 279 279 280 280 281 282 282 282 282 282 282 282 283 283 284 285 285 284 284 284 284 285 285 285 285 286 286 286 287 288 288 288 289 290 291 291 292
275 275 275 275 276 276 275 275 279 280 279 278 277 278 278 279 280 281 282 282 282 282 282 282 282 282 283 283 284 284 283 283 283 283 283 284 284 283 284 284 285 286 285 286 288 288 290 290 290
275 274 272 272 275 274 274 274 276 279 278 277 276 276 277 278 280 281 281 282 281 281 281 281 281 281 282 282 282 282 281 282 282 282 283 283 283 283 282 282 283 284 283 284 286 287 287 288 290
273 272 270 272 275 274 272 273 275 277 279 279 277 277 277 277 278 280 280 280 281 281 280 281 281 280 281 282 282 282 282 282 281 282 282 282 282 282 281 281 281 282 281 281 283 285 285 286 288
271 271 269 271 273 272 271 271 272 274 277 278 279 279 278 278 278 278 278 279 279 279 280 280 281 281 280 281 281 281 281 281 280 280 280 281 281 281 281 280 280 280 281 280 281 282 283 282 285
273 272 273 272 271 269 270 268 271 271 273 276 278 277 277 277 278 278 278 278 279 279 280 281 281 281 280 280 280 279 278 278 278 279 280 280 281 280 280 280 280 280 280 279 280 280 283 283 281
272 273 273 273 270 268 268 267 270 271 272 274 277 278 277 278 278 278 279 280 279 280 280 280 280 280 280 279 279 278 278 279 279 279 279 279 280 280 280 280 279 279 279 279 279 279 280 282 282
275 273 273 270 269 263 266 267 270 271 272 274 277 278 278 277 277 278 279 279 279 280 280 279 280 279 280 279 278 278 278 278 278 278 278 278 279 279 279 279 279 279 279 278 279 279 279 280 281
273 269 265 263 261 265 266 265 271 274 274 275 275 278 278 278 277 277 277 277 278 279 279 279 279 279 279 279 278 278 278 277 277 277 277 277 277 278 278 278 278 278 278 278 278 278 278 279 280
270 267 265 260 263 265 268 266 273 274 275 275 277 277 278 277 278 278 277 278 278 280 279 279 279 279 279 278 278 278 278 278 278 277 277 277 277 277 278 278 278 278 278 278 277 278 278 278 279
268 267 268 261 259 261 267 270 275 275 275 274 276 275 275 277 277 278 277 278 278 279 279 279 279 279 279 278 278 278 278 277 278 277 277 278 277 278 277 277 277 277 277 277 276 277 276 277 278
269 271 266 264 259 257 265 264 270 273 274 274 274 274 275 275 276 277 277 277 278 278 278 278 279 279 280 279 278 278 278 278 278 277 277 277 277 277 277 277 277 277 276 276 275 276 276 276 277
266 265 265 266 263 261 260 267 269 271 274 274 274 275 275 275 276 277 278 278 278 278 277 278 278 278 279 279 279 278 278 278 278 278 278 277 277 277 276 276 276 276 275 275 274 274 275 275 276
266 265 266 264 261 260 262 266 274 274 275 274 275 277 275 275 275 276 276 276 276 277 277 277 277 278 279 279 279 279 279 278 278 277 278 277 276 276 276 276 275 275 274 274 273 273 274 274 275
Wind_Speed
10 7 1 4 3 4 1 1 0 3 2 4 1 3 9 7 5 3 5 16 16 13 13 15 22 20 20 21 22 21 21 19 18 19 13 4 4 4 5 6 5 6 8 8 9 2 5 8 8
5 4 1 3 4 2 2 2 2 2 5 7 7 3 8 6 5 4 3 17 14 12 13 14 19 19 20 20 21 21 21 20 19 19 17 18 13 7 6 7 7 8 7 7 8 7 5 8 8
3 1 2 5 3 2 2 0 6 5 4 1 5 8 4 3 3 4 8 12 12 12 12 14 19 19 20 21 21 20 20 19 20 19 19 17 17 15 13 9 6 7 10 9 8 8 7 8 11
3 4 3 5 3 1 0 5 6 6 4 7 5 9 5 5 2 6 9 11 11 12 12 14 19 19 19 20 20 20 20 20 20 20 19 18 18 18 17 15 13 12 10 9 9 8 8 3 10
2 2 3 4 3 3 2 2 4 3 3 4 1 6 4 3 5 8 9 10 12 12 12 12 19 19 19 20 20 20 20 20 20 20 20 19 19 19 19 18 18 16 14 13 12 8 6 6 4
3 3 2 4 4 4 3 1 3 4 4 3 6 5 3 3 7 7 8 10 10 11 12 13 17 19 19 20 20 21 20 20 21 21 20 18 19 19 20 19 18 18 19 17 14 12 9 6 6
4 3 4 5 6 5 4 3 3 4 4 5 3 5 5 5 5 4 7 8 9 12 13 13 14 16 17 20 21 21 21 21 21 22 21 19 19 19 20 20 20 19 19 19 18 15 13 10 8
3 3 4 3 7 4 4 5 4 5 4 1 6 3 5 2 4 4 4 8 9 11 13 13 13 13 12 13 21 20 21 21 22 22 22 20 18 19 19 20 20 20 21 19 19 18 18 14 11
1 3 3 2 5 3 3 3 4 2 7 4 6 4 2 6 5 7 7 10 10 12 14 14 14 14 13 13 13 16 19 20 22 20 21 15 11 13 15 17 21 20 22 20 20 19 18 18 10
4 2 5 2 3 3 2 4 6 3 4 4 6 4 5 9 8 10 10 10 13 14 14 13 13 14 12 10 12 12 12 11 13 14 15 11 12 12 13 15 19 19 21 19 20 19 18 14 8
4 2 3 2 4 3 5 3 2 9 2 6 7 8 3 8 9 10 9 9 9 9 10 13 12 12 12 10 8 7 7 7 9 15 14 12 10 10 9 8 9 10 16 9 12 10 8 11 8
6 4 3 2 2 3 3 4 5 4 3 8 12 9 4 8 8 8 8 8 8 9 10 11 12 11 12 7 8 9 8 8 8 11 15 11 8 10 10 8 11 10 10 12 11 8 11 11 11
5 2 5 4 7 5 5 3 6 5 7 11 10 9 7 6 6 6 6 7 8 10 10 11 11 11 10 11 8 9 10 9 10 11 13 11 11 10 10 10 9 10 10 10 11 11 11 12 12
3 5 3 5 4 4 4 3 2 4 7 9 8 7 5 5 4 4 7 7 8 8 9 8 11 10 10 10 11 9 8 9 9 10 12 14 10 10 10 10 10 10 10 10 10 11 11 10 11
3 5 3 6 4 2 2 0 5 8 9 9 7 6 4 3 4 5 3 5 5 6 7 9 9 9 10 10 9 8 8 9 9 10 13 15 13 12 11 10 10 10 10 12 10 11 10 9 10
5 4 2 3 4 2 1 5 2 10 11 9 8 6 5 3 2 2 3 4 4 5 7 7 7 8 9 10 8 7 8 8 9 9 10 15 14 14 11 10 11 11 10 11 10 11 11 10 11
6 2 2 2 4 3 1 4 3 6 7 8 7 7 6 5 4 3 2 3 4 4 5 7 8 8 7 7 7 9 11 9 9 9 10 14 14 14 11 10 10 11 10 10 11 10 11 10 12
5 3 2 4 3 2 2 8 4 8 8 11 9 7 7 7 7 6 5 4 3 3 4 5 6 7 6 3 4 6 8 8 8 9 10 13 11 14 11 10 12 11 10 10 11 13 11 11 12
6 3 2 2 1 2 6 8 8 11 10 10 9 9 9 9 6 6 6 5 4 3 3 4 5 6 5 3 2 2 4 5 8 8 11 12 12 13 13 9 11 11 11 12 13 11 14 12 14
2 2 3 2 1 1 5 13 13 13 16 18 15 13 12 6 7 7 6 5 5 4 3 3 4 4 4 2 1 1 1 3 4 6 9 10 11 12 11 11 10 11 9 12 13 13 10 8 11
2 2 2 2 3 1 6 9 6 4 5 9 13 13 11 14 13 9 8 7 6 5 5 4 3 3 3 4 2 2 2 2 3 6 6 8 10 10 11 11 10 10 9 9 11 11 13 10 10
2 1 2 1 3 4 3 8 7 3 5 9 17 15 13 13 9 7 10 8 8 7 5 4 4 3 3 3 4 5 3 3 2 3 4 6 8 10 10 11 10 10 8 11 10 10 10 9 10
3 2 3 2 3 3 1 1 8 2 7 16 17 16 15 15 14 13 13 11 7 7 7 6 4 3 3 3 4 3 4 2 1 2 5 6 6 8 10 10 10 10 8 9 10 11 10 8 7
5 4 4 4 3 3 2 2 8 6 7 5 9 16 17 14 13 11 9 8 6 6 6 6 5 4 4 3 3 3 3 2 2 3 4 4 4 5 8 8 7 7 7 8 8 8 9 8 7
3 4 4 6 5 6 2 0 14 9 7 6 6 14 16 14 13 11 11 10 8 9 8 6 6 5 5 4 3 3 2 1 1 2 2 4 3 3 5 6 7 6 7 8 8 7 7 8 7
1 4 6 7 3 4 2 8 11 7 2 4 4 6 10 15 14 13 13 11 10 9 8 7 6 6 5 6 5 5 4 2 2 2 1 1 1 2 4 5 5 7 7 7 8 5 6 7 6
3 2 2 8 2 4 5 10 11 2 5 6 4 4 9 11 13 14 11 11 10 8 8 9 7 6 6 7 6 6 5 5 4 4 3 2 1 2 3 4 5 5 6 7 8 6 7 7 7
5 4 5 4 1 5 6 7 8 6 8 9 5 6 6 6 10 11 10 11 9 8 6 6 7 9 7 7 6 6 7 6 5 4 4 4 3 2 3 4 4 5 6 7 7 6 6 8 6
2 1 3 3 4 5 2 9 8 5 3 7 9 7 7 9 11 11 11 9 8 5 6 7 7 7 7 6 6 6 6 6 6 6 5 5 4 3 2 3 4 5 6 7 7 7 7 8 8
3 6 5 7 6 2 1 12 1 6 7 5 8 6 4 7 9 8 8 8 7 7 6 7 6 7 7 6 6 6 5 6 6 6 6 5 5 4 3 2 3 4 5 6 7 7 7 9 9
Wind_Direction
324 312 7 42 53 63 92 265 291 115 97 18 37 72 105 41 53 122 172 14 355 354 355 345 2 9 20 23 23 22 22 21 22 20 7 17 35 24 37 37 31 15 359 357 355 321 196 158 157
321 309 19 92 75 74 258 275 218 64 137 144 71 41 43 74 26 68 39 353 352 351 353 347 4 10 19 25 27 23 22 22 23 21 15 13 5 12 25 18 9 2 351 353 350 347 244 179 173
287 258 94 94 102 164 215 335 128 97 75 70 97 49 59 30 59 37 348 344 352 360 358 352 7 13 22 23 25 26 25 24 22 21 20 18 15 12 4 4 5 357 346 345 347 354 356 200 187
16 5 30 96 126 217 316 114 130 127 98 67 104 71 82 48 39 4 353 359 2 3 4 359 11 16 24 25 26 27 25 25 25 21 23 23 23 22 18 13 360 354 347 346 335 338 351 338 201
29 57 76 97 118 104 62 100 180 85 75 37 20 131 79 57 37 24 14 10 11 6 7 8 13 19 23 26 27 28 28 27 26 24 25 25 25 26 25 23 19 7 354 341 334 333 328 332 245
51 96 81 182 132 130 93 11 88 70 65 58 88 98 109 66 37 25 20 17 17 13 11 12 12 19 23 26 27 27 28 29 27 26 25 25 25 27 28 24 22 20 11 357 344 332 332 311 290
120 103 206 179 143 139 135 43 59 93 64 44 335 98 136 43 25 34 29 25 22 21 19 17 15 14 18 25 26 26 28 28 27 24 25 23 22 23 24 20 19 22 14 14 6 351 335 313 302
103 105 146 186 171 172 137 102 53 25 99 29 0 139 162 105 29 38 39 34 32 29 26 19 17 17 17 24 23 25 27 27 26 24 21 20 21 16 21 19 14 18 15 13 9 6 0 339 317
326 71 182 161 162 131 128 112 65 76 92 56 16 28 95 93 63 52 33 28 28 27 25 18 18 19 18 30 20 22 24 25 24 19 17 18 17 11 16 15 14 14 11 9 8 5 3 360 346
65 160 191 98 118 101 50 106 139 135 109 74 96 95 81 75 72 64 46 29 22 17 19 19 18 19 21 27 21 23 24 25 26 20 17 17 17 13 15 14 13 12 10 5 3 1 1 5 351
17 128 144 89 82 112 141 96 110 135 168 189 173 141 73 69 66 64 57 43 28 14 22 19 18 20 24 25 26 25 26 23 24 23 21 19 16 14 17 11 10 8 6 5 358 355 360 353 349
85 40 56 31 31 145 126 110 74 26 57 101 117 120 108 69 57 54 51 42 33 30 23 22 22 26 28 26 32 32 29 29 29 24 21 21 18 18 18 16 12 12 5 2 1 352 348 347 344
76 111 57 85 79 76 90 67 128 107 106 107 120 113 109 105 96 74 66 49 37 38 26 25 26 28 28 37 34 36 36 33 31 29 25 23 23 21 17 18 16 15 8 4 358 355 352 348 341
70 86 87 42 54 65 104 143 83 181 142 125 124 116 111 95 75 68 52 45 39 35 30 24 39 32 36 39 39 38 38 34 36 32 27 26 26 24 24 23 22 18 11 5 360 357 353 347 343
129 77 94 24 0 87 125 179 235 151 156 146 141 137 122 99 84 80 79 69 41 38 30 31 44 34 41 42 41 42 37 37 37 34 30 29 27 26 27 29 25 15 8 7 5 4 0 357 348
59 57 95 10 353 339 68 262 155 158 156 167 164 167 159 165 154 138 111 97 66 58 44 42 40 41 45 46 46 48 42 42 40 35 32 31 29 27 30 27 21 10 11 13 9 6 2 359 347
19 190 202 316 40 330 161 276 137 170 166 177 187 189 183 176 190 195 152 115 85 68 51 46 40 43 48 54 53 52 46 43 37 36 33 29 29 27 31 28 19 14 17 18 12 10 5 357 345
192 189 229 247 340 27 266 260 184 192 186 198 195 198 198 197 205 192 183 157 121 85 67 58 46 37 42 63 56 53 52 45 38 36 33 29 27 27 27 27 24 21 23 19 16 13 8 6 346
120 134 221 244 339 289 247 266 235 203 213 207 199 202 206 207 201 185 188 174 153 128 101 71 62 34 37 41 29 31 45 38 41 38 33 30 27 27 30 28 25 22 26 18 14 11 9 9 356
97 118 247 297 316 242 333 273 249 202 221 207 195 204 204 191 187 195 193 191 192 170 154 124 99 73 56 69 105 116 105 54 46 36 37 31 30 30 32 27 25 24 22 22 19 15 12 18 14
82 171 197 254 332 153 326 278 267 248 223 199 207 203 200 191 190 196 194 195 188 196 186 157 133 106 76 62 88 90 91 70 29 28 32 27 29 30 31 30 28 25 24 20 14 14 18 13 17
170 47 91 69 34 266 11 288 297 263 253 218 209 199 195 194 193 187 192 193 195 202 186 180 167 143 108 73 76 76 81 78 45 22 26 32 32 31 29 28 26 26 21 21 13 12 11 10 18
157 156 115 93 101 356 335 290 266 11 259 231 213 203 200 198 189 193 195 197 195 181 187 186 181 175 146 112 101 91 84 78 52 31 35 32 32 32 26 24 21 22 19 15 13 9 12 14 11
147 90 59 61 76 5 314 145 275 220 225 269 204 202 201 193 193 195 194 183 189 188 183 185 190 199 178 158 136 112 94 82 49 33 30 22 18 26 26 20 20 18 15 11 7 6 9 7 4
39 58 352 354 12 227 305 43 253 272 237 230 223 205 198 186 187 189 186 191 193 192 194 192 195 213 199 194 192 188 181 152 48 23 16 7 9 9 13 14 15 12 9 6 2 4 4 3 359
138 144 158 207 207 272 4 242 253 219 331 260 271 219 190 185 187 189 193 192 195 196 192 194 195 218 206 203 213 207 210 204 208 208 223 317 338 341 354 5 5 6 4 4 0 357 358 356 350
217 191 209 96 55 41 231 286 298 264 286 275 273 193 196 196 185 188 189 193 193 191 198 198 199 217 214 210 210 210 209 209 213 209 211 234 257 297 353 354 2 2 2 0 355 352 352 347 344
140 177 80 4 220 278 285 280 243 306 340 345 308 251 231 204 192 190 189 194 195 194 192 191 199 209 210 205 204 210 210 213 212 205 218 219 236 256 325 350 358 1 359 356 354 349 345 347 345
91 165 54 127 143 191 274 263 215 222 295 301 300 269 215 202 198 194 193 196 186 177 187 199 202 208 213 205 205 209 215 214 211 216 218 218 218 233 304 338 346 352 353 350 346 344 342 341 337
144 189 154 132 241 235 142 271 294 248 264 277 300 295 231 208 195 186 187 181 177 191 193 202 205 209 216 208 204 215 220 217 217 220 218 212 217 209 223 271 325 334 339 339 336 335 336 333 334